[[{"header":{"parameterUnit":"m.s-1","parameterCategory":1,"la1":30.2991,"la2":30.254,"lo1":-89.0895,"lo2":-89.0444,"dy":0.0017,"dx":0.0017,"nx":28,"ny":28,"refTime":"2025-03-12T09:00:00:Z","depth":0,"parameterNumber":2,"parameterNumberName":"U-component_of_WINDS"},"data":[0,0,0,0,0,0,0,0,0,0,0,0,0,0,0,0,0,0,0,0,0,0,0,0,0,0,0,0,0,0,0,0,0,0,0,0,0,0,0,0,0,0,0,0,0,0,0,0,0,0,0,0,0,0,0,0,0,0,-1.097,-1.097,0,-1.1021,-1.1021,-1.1022,-1.1045,-1.1045,-1.1045,-1.1045,-1.1095,-1.1096,-1.1098,0,0,0,0,0,0,0,0,0,0,0,0,0,-1.0888,-1.089,-1.097,-1.097,-1.0971,-1.1021,-1.1021,-1.1022,-1.1045,-1.1045,-1.1045,-1.1045,-1.1094,-1.1096,-1.1098,0,0,0,0,0,0,0,0,0,0,0,0,0,-1.093,-1.089,-1.097,-1.0989,-1.0991,-1.1021,-1.1021,-1.1022,-1.1045,-1.1045,-1.1045,-1.1045,-1.1094,-1.1096,-1.1098,-1.1112,0,0,-1.1104,-1.1105,0,0,0,0,0,0,0,0,-1.0927,-1.0933,-1.0985,-1.0987,-1.099,-1.1027,-1.1011,-1.1052,-1.1045,-1.1024,-1.1045,-1.1045,-1.1072,-1.1076,-1.1086,-1.1114,-1.1117,-1.1104,-1.1106,-1.1107,-1.1107,0,0,0,0,0,0,0,-1.0925,-1.0931,-1.099,-1.0986,-1.0989,-1.0993,-1.0999,-1.1019,-1.1048,-1.1026,-1.1028,-1.1034,-1.1073,-1.1084,-1.1087,-1.1117,-1.1104,-1.1106,-1.1107,-1.1108,-1.1157,-1.1157,0,0,0,0,0,0,-1.0919,-1.0928,-1.0988,-1.0991,-1.0958,-1.0995,-1.1001,-1.1015,-1.1048,-1.1053,-1.1034,-1.1035,-1.108,-1.1084,-1.1089,-1.1106,-1.1107,-1.1108,-1.111,-1.1157,-1.1157,-1.1157,0,0,0,0,0,0,-1.0917,-1.0924,-1.0986,-1.096,-1.0969,-1.0996,-1.1011,-1.1016,-1.1026,-1.1054,-1.1059,-1.1039,-1.108,-1.1086,-1.1106,-1.1108,-1.1109,-1.1111,-1.1157,-1.1157,-1.1157,-1.1141,0,0,0,0,0,0,-1.0915,-1.0923,-1.093,-1.096,-1.097,-1.1003,-1.1011,-1.1017,-1.103,-1.1032,-1.106,-1.1065,-1.1081,-1.1102,-1.1108,-1.1111,-1.1113,-1.1157,-1.1157,-1.1157,-1.1141,-1.114,-1.114,0,0,0,0,0,-1.0912,-1.0924,-1.0931,-1.0938,-1.0979,-1.1004,-1.1009,-1.1028,-1.103,-1.1036,-1.1053,-1.1064,-1.1107,-1.1104,-1.111,-1.1114,-1.1157,-1.1157,-1.1157,-1.1142,-1.1141,-1.114,0,0,0,0,0,0,-1.0893,-1.0928,-1.0936,-1.0958,-1.0978,-1.1008,-1.1016,-1.1026,-1.1045,-1.1046,-1.1067,-1.1074,-1.1091,-1.1105,-1.1101,-1.1128,-1.1132,-1.1134,-1.1119,-1.1118,-1.1117,-1.1113,-1.1115,0,0,0,0,0,-1.0892,-1.091,-1.0939,-1.0956,-1.0965,-1.0989,-1.1,-1.1013,-1.1033,-1.1042,-1.106,-1.1079,-1.1097,-1.1108,-1.1126,-1.1143,-1.1149,-1.1148,-1.1148,-1.1147,-1.1148,-1.1155,-1.1155,-1.1158,-1.1158,-1.1158,0,0,-1.0889,-1.091,-1.092,-1.0952,-1.0969,-1.0985,-1.0996,-1.1013,-1.1025,-1.1044,-1.1064,-1.1078,-1.11,-1.1118,-1.1127,-1.113,-1.1148,-1.1147,-1.1146,-1.1147,-1.1155,-1.1155,-1.1155,-1.1158,-1.1158,-1.1158,0,0,-1.0892,-1.0911,-1.0926,-1.0942,-1.0967,-1.0982,-1.0985,-1.1013,-1.1023,-1.1043,-1.1057,-1.107,-1.1101,-1.1116,-1.1127,-1.1132,-1.1142,-1.1137,-1.1133,-1.114,-1.114,-1.114,-1.114,-1.114,-1.1138,-1.1138,-1.1138,0,-1.0886,-1.0912,-1.0932,-1.0949,-1.0961,-1.0979,-1.0993,-1.1007,-1.1036,-1.1044,-1.1047,-1.1083,-1.11,-1.112,-1.1121,-1.1131,-1.1134,-1.1135,-1.1139,-1.1139,-1.1139,-1.114,-1.114,-1.1137,-1.1138,-1.1138,-1.1138,0,-1.0902,-1.092,-1.0929,-1.0956,-1.097,-1.0985,-1.1005,-1.1016,-1.1027,-1.1041,-1.106,-1.108,-1.1101,-1.1106,-1.1117,-1.1128,-1.1128,-1.1135,-1.114,-1.1138,-1.1138,-1.1139,-1.1136,-1.1137,-1.1137,-1.1137,0,0,-1.0897,-1.0933,-1.0936,-1.0947,-1.0975,-1.0988,-1.1003,-1.1024,-1.1032,-1.105,-1.1062,-1.1086,-1.1091,-1.1104,-1.1116,-1.1123,-1.1124,-1.1128,-1.1129,-1.1126,-1.1134,-1.1129,-1.1129,-1.113,-1.113,-1.113,-1.1132,0,-1.0903,-1.0931,-1.0948,-1.0969,-1.0984,-1.0999,-1.1012,-1.1029,-1.1042,-1.1056,-1.107,-1.1086,-1.1093,-1.11,-1.1107,-1.1122,-1.1125,-1.1122,-1.114,-1.114,-1.1133,-1.113,-1.1125,-1.1126,-1.1132,-1.1133,-1.1133,0,-1.0915,-1.0932,-1.0955,-1.0978,-1.0985,-1.0996,-1.1015,-1.1029,-1.1047,-1.1056,-1.1069,-1.1081,-1.1095,-1.1098,-1.1117,-1.1114,-1.1122,-1.113,-1.113,-1.1133,-1.1136,-1.1131,-1.1127,-1.1126,-1.1134,-1.1134,-1.1133,0,-1.0907,-1.0936,-1.0953,-1.0962,-1.099,-1.0997,-1.1009,-1.1027,-1.1038,-1.1054,-1.1061,-1.1078,-1.1087,-1.11,-1.1115,-1.1117,-1.1132,-1.1137,-1.1138,-1.1138,-1.1141,-1.114,-1.1137,-1.1147,-1.1147,-1.1147,-1.1147,0,-1.0912,-1.0924,-1.0949,-1.096,-1.0973,-1.0991,-1.1004,-1.1017,-1.1033,-1.1044,-1.1058,-1.1068,-1.1088,-1.1101,-1.1112,-1.1125,-1.1129,-1.1136,-1.1139,-1.1134,-1.1133,-1.114,-1.114,-1.1147,-1.1147,-1.1147,-1.1147,0,-1.0906,-1.0923,-1.0942,-1.0966,-1.0972,-1.0981,-1.1001,-1.101,-1.1023,-1.1038,-1.1042,-1.1062,-1.1077,-1.1093,-1.1113,-1.1121,-1.1133,-1.1137,-1.1126,-1.1128,-1.1128,-1.1127,-1.1128,-1.1128,-1.1138,-1.1138,-1.1138,0,-1.0908,-1.0918,-1.0942,-1.0951,-1.0962,-1.0977,-1.0987,-1.1004,-1.1014,-1.1035,-1.1041,-1.1057,-1.1071,-1.1093,-1.1109,-1.1124,-1.1128,-1.1127,-1.1131,-1.1125,-1.1127,-1.1126,-1.1126,-1.1126,-1.1126,-1.1126,-1.1126,0,-1.0909,-1.0916,-1.0931,-1.0948,-1.096,-1.0975,-1.0989,-1.0995,-1.1015,-1.1025,-1.1041,-1.1051,-1.1071,-1.1086,-1.1102,-1.1113,-1.1122,-1.1124,-1.1125,-1.1121,-1.1114,-1.1116,-1.1123,-1.1125,-1.1125,-1.1125,-1.1125,-1.1125,-1.0906,-1.0915,-1.0933,-1.0948,-1.0961,-1.0974,-1.0983,-1.0996,-1.101,-1.1027,-1.1036,-1.1051,-1.1067,-1.109,-1.11,-1.111,-1.1113,-1.1115,-1.1115,-1.1115,-1.1114,-1.1112,-1.1114,-1.1114,-1.1114,-1.1114,-1.1114,0,-1.0907,-1.0919,-1.0933,-1.0952,-1.0964,-1.0971,-1.0987,-1.0996,-1.1009,-1.1023,-1.1035,-1.1052,-1.1065,-1.1081,-1.1096,-1.1101,-1.1105,-1.1104,-1.1104,-1.1106,-1.1111,-1.1108,-1.11,-1.11,-1.11,-1.11,-1.11,-1.11,-1.0909,-1.0923,-1.0932,-1.0952,-1.0963,-1.0978,-1.0986,-1.0997,-1.1008,-1.1026,-1.1037,-1.1047,-1.1062,-1.1077,-1.1089,-1.1093,-1.1097,-1.1095,-1.11,-1.1104,-1.1105,-1.1107,-1.1104,-1.1096,-1.1096,-1.1094,-1.1094,-1.1094]},{"header":{"parameterUnit":"m.s-1","parameterCategory":1,"la1":30.2991,"la2":30.254,"lo1":-89.0895,"lo2":-89.0444,"dy":0.0017,"dx":0.0017,"nx":28,"ny":28,"refTime":"2025-03-12T09:00:00:Z","depth":0,"parameterNumber":3,"parameterNumberName":"V-component_of_WINDS"},"data":[0,0,0,0,0,0,0,0,0,0,0,0,0,0,0,0,0,0,0,0,0,0,0,0,0,0,0,0,0,0,0,0,0,0,0,0,0,0,0,0,0,0,0,0,0,0,0,0,0,0,0,0,0,0,0,0,0,0,2.7914,2.7915,0,2.8078,2.808,2.8081,2.8114,2.8112,2.8111,2.811,2.8283,2.8289,2.8295,0,0,0,0,0,0,0,0,0,0,0,0,0,2.7635,2.764,2.7913,2.7915,2.7918,2.8077,2.808,2.8082,2.8114,2.8112,2.8111,2.8109,2.8281,2.8288,2.8295,0,0,0,0,0,0,0,0,0,0,0,0,0,2.7773,2.7641,2.7913,2.7953,2.7958,2.8077,2.808,2.8083,2.8114,2.8112,2.811,2.8108,2.8279,2.8287,2.8296,2.8389,0,0,2.8323,2.8327,0,0,0,0,0,0,0,0,2.7765,2.7783,2.7945,2.795,2.7956,2.8073,2.8045,2.8186,2.8115,2.8055,2.811,2.8107,2.8215,2.8229,2.8264,2.8397,2.8405,2.8324,2.8329,2.8333,2.8335,0,0,0,0,0,0,0,2.7756,2.7777,2.7979,2.7947,2.7954,2.7965,2.7982,2.8072,2.8144,2.806,2.8063,2.8081,2.8218,2.8256,2.8269,2.8407,2.8323,2.8331,2.8337,2.834,2.863,2.8632,0,0,0,0,0,0,2.7738,2.7768,2.7973,2.7984,2.7854,2.7971,2.7991,2.8038,2.8143,2.8157,2.8083,2.8082,2.8242,2.8258,2.8275,2.8394,2.8333,2.8341,2.8346,2.8628,2.8631,2.8633,0,0,0,0,0,0,2.7732,2.7756,2.7967,2.7877,2.7904,2.7978,2.803,2.8042,2.808,2.816,2.8174,2.8108,2.8241,2.8263,2.8361,2.8401,2.8345,2.8353,2.8625,2.8628,2.8632,2.8631,0,0,0,0,0,0,2.7724,2.7754,2.7788,2.7877,2.7909,2.8048,2.8033,2.8046,2.8094,2.8095,2.8188,2.8201,2.8241,2.8348,2.837,2.8412,2.836,2.8622,2.8626,2.8631,2.8628,2.8634,2.864,0,0,0,0,0,2.7714,2.7781,2.7789,2.7814,2.7953,2.805,2.8069,2.8112,2.8097,2.8134,2.8186,2.8198,2.8392,2.8358,2.8383,2.8428,2.8619,2.8625,2.863,2.8625,2.8633,2.864,0,0,0,0,0,0,2.7696,2.7794,2.7804,2.7902,2.7967,2.8055,2.8103,2.8118,2.819,2.8188,2.824,2.8261,2.8358,2.8402,2.8362,2.8526,2.8505,2.8516,2.8493,2.8501,2.8507,2.8495,2.8367,0,0,0,0,0,2.7703,2.7772,2.7854,2.7933,2.7965,2.8028,2.8072,2.81,2.8171,2.8199,2.8259,2.8329,2.8406,2.8456,2.8531,2.8634,2.8657,2.8678,2.8684,2.8688,2.8697,2.876,2.8771,2.8651,2.8651,2.8651,0,0,2.7719,2.7781,2.7822,2.7931,2.7985,2.8058,2.8051,2.8128,2.8184,2.8211,2.8308,2.8355,2.8437,2.8539,2.8587,2.8579,2.8736,2.8695,2.8698,2.8705,2.8767,2.8778,2.8788,2.8655,2.8654,2.8654,0,0,2.7787,2.7839,2.7912,2.7966,2.8048,2.809,2.8107,2.8194,2.8225,2.8323,2.8347,2.8415,2.8545,2.8604,2.8651,2.8743,2.8759,2.8766,2.8798,2.8858,2.8867,2.8876,2.8912,2.8924,2.8775,2.8775,2.8775,0,2.7797,2.7905,2.7948,2.8024,2.8073,2.81,2.8177,2.8228,2.8331,2.8366,2.8355,2.8522,2.8579,2.8697,2.872,2.8756,2.8781,2.8757,2.8862,2.8871,2.888,2.8916,2.8929,2.8775,2.8775,2.8775,2.8775,0,2.7916,2.7991,2.8041,2.8138,2.8193,2.8269,2.8326,2.8376,2.84,2.8444,2.8546,2.8615,2.8706,2.8736,2.876,2.8859,2.8852,2.8851,2.8832,2.8891,2.8926,2.8939,2.8776,2.8776,2.8776,2.8776,0,0,2.7976,2.8097,2.8115,2.8162,2.8255,2.8315,2.8394,2.8482,2.8527,2.8597,2.8667,2.8778,2.8778,2.8832,2.8862,2.8915,2.8988,2.8908,2.8911,2.8923,2.9107,2.911,2.9124,2.8998,2.9001,2.9003,2.9102,0,2.8057,2.8196,2.8238,2.8356,2.8429,2.8457,2.8526,2.8593,2.8636,2.8706,2.8755,2.8835,2.8827,2.886,2.8913,2.8968,2.9026,2.8961,2.9067,2.9071,2.9048,2.9142,2.9144,2.9233,2.9115,2.9117,2.9119,0,2.8169,2.8242,2.8367,2.8454,2.8486,2.8547,2.8633,2.8698,2.8776,2.8804,2.8865,2.8892,2.8979,2.8953,2.9076,2.9031,2.9077,2.9111,2.9116,2.9129,2.91,2.9161,2.9263,2.9277,2.914,2.9138,2.9136,0,2.8205,2.8333,2.8426,2.8464,2.8567,2.861,2.8656,2.8731,2.8782,2.8858,2.8893,2.8978,2.9026,2.9093,2.9144,2.912,2.9264,2.9242,2.9293,2.9292,2.9324,2.9322,2.9437,2.9349,2.9348,2.9348,2.9348,0,2.8292,2.8369,2.8444,2.8501,2.8589,2.8637,2.8724,2.8771,2.8838,2.8907,2.8937,2.9002,2.9064,2.9138,2.9178,2.9276,2.9297,2.9325,2.9335,2.9324,2.9321,2.9357,2.9353,2.9352,2.9351,2.935,2.935,0,2.8347,2.84,2.8504,2.8593,2.8617,2.8678,2.8756,2.8815,2.886,2.8948,2.8971,2.9043,2.9132,2.9189,2.9303,2.933,2.9439,2.9445,2.9412,2.9418,2.9467,2.9463,2.9612,2.9636,2.9528,2.9529,2.953,0,2.8401,2.846,2.8556,2.8604,2.865,2.8726,2.8779,2.883,2.8884,2.8979,2.9027,2.9118,2.9193,2.9335,2.94,2.9488,2.9499,2.9545,2.9513,2.9501,2.9504,2.9501,2.951,2.9551,2.9552,2.9553,2.9554,0,2.8491,2.8515,2.8589,2.8673,2.8735,2.8805,2.8874,2.8912,2.8976,2.9036,2.9127,2.9186,2.9302,2.9394,2.9488,2.9538,2.9559,2.9563,2.9581,2.9571,2.9551,2.9566,2.943,2.956,2.9559,2.9559,2.9559,2.9558,2.855,2.8605,2.8682,2.8765,2.8822,2.8887,2.8947,2.9,2.9076,2.9174,2.92,2.9297,2.9377,2.9505,2.9557,2.9636,2.963,2.9654,2.9661,2.9667,2.967,2.9536,2.9653,2.9653,2.9653,2.9652,2.9652,0,2.8645,2.8696,2.8771,2.8867,2.8934,2.8944,2.9022,2.9078,2.9162,2.9233,2.9307,2.9414,2.9504,2.9575,2.9668,2.9718,2.973,2.9741,2.9739,2.9752,2.9667,2.9645,2.973,2.973,2.973,2.973,2.973,2.973,2.8702,2.8798,2.8831,2.8958,2.9009,2.9102,2.9147,2.9208,2.9266,2.9384,2.9458,2.9503,2.9577,2.9675,2.976,2.9779,2.9813,2.9823,2.9845,2.9765,2.9757,2.9749,2.9728,2.9829,2.9829,2.9923,2.9924,2.9924]}]]